STARLINK-11152 [DTC]

Last updated on Sat Aug 03 2024 00:02:04 GMT+0000 (Coordinated Universal Time)

1 60194U 24124M 24215.28193690 .00028861 00000+0 17935-3 0 9997 2 60194 53.1583 162.3566 0000562 58.1162 301.9914 15.76776768 5936

Satellite not in orbit

STARLINK-11152 [DTC]